Location: Arthez
(43.0833°N, 0.2500°W)
Time: 01:12:23
(UTC+00:00)

Cosmos 2360 Rocket - Pass Details

Date: 23 October 2021
Orbit: 832 x 846 km, 71.0° (Epoch: 06 December)

Event Time Altitude Azimuth Distance (km) Brightness Sun altitude
Rises 18:27:58 0° 186° (S) 3,370 5.4 -15.7°
Reaches altitude 10° 18:30:27 10° 181° (S) 2,442 4.6 -16.2°
Maximum altitude 18:35:49 49° 108° (ESE) 1,074 2.3 -17.1°
Enters shadow 18:40:50 12° 36° (NE) 2,314 4.1 -18.1°
